Location: ??
(35.1715°N, 139.6450°E)
Time: 10:09:30
(UTC+00:00)

COSMOS 2428 - Pass Details

Date: 05 August 2024
Orbit: 842 x 857 km, 70.9° (Epoch: 14 September)

Event Time Altitude Azimuth Distance (km) Brightness Sun altitude
Exits shadow 18:29:39 21° 265° (W) 1,830 3.9 -16.1°
Maximum altitude 18:31:55 27° 300° (WNW) 1,588 3.9 -15.7°
Drops below altitude 10° 18:36:40 10° 357° (N) 2,477 5.5 -14.9°
Sets 18:39:32 0° 10° (N) 3,419 6.5 -14.4°
